Regional Weather Roundup
Issued by NWS State College, PA

Home | Current Version | Previous Version | Graphics & Text | Print | Product List | Glossary On
Versions: 1 2 3 4 5 6 7 8 9 10 11 12 13 14 15 16 17 18 19 20 21 22 23 24 25 26 27 28 29 30 31 32 33 34 35 36 37 38 39 40 41 42 43 44 45 46 47 48 49 50
524
ASUS41 KCTP 291410
RWRCTP

REGIONAL WEATHER ROUNDUP
NATIONAL WEATHER SERVICE STATE COLLEGE PA
1000 AM EDT THU SEP 29 2016

Note: "fair" indicates few or no clouds below 12,000 feet with no
significant weather and/or obstructions to visibility.

* = STATION THAT DOES NOT REPORT PRECIPITATION /E.G. RAIN...SNOW...ETC/
    THUNDER OR FOG.

PAZ002>004-007>009-013>016-020>023-029>032-291500-
WESTERN PENNSYLVANIA

CITY           SKY/WX    TMP DP  RH WIND       PRES   REMARKS
ERIE           CLOUDY    64  57  78 E10       30.16R
MEADVILLE      CLOUDY    60  55  83 E10       30.15R
FRANKLIN*        N/A     57  52  82 E12       30.17R
NEW CASTLE     CLOUDY    61  58  90 E8G16     30.13S
BEAVER COUNTY  CLOUDY    59  57  94 E9        30.12R
BUTLER*        CLOUDY    59  54  82 E10G23    30.15R
PITTSBURGH INT CLOUDY    59  59 100 E9        30.10S
PITTSBURGH     CLOUDY    60  54  80 E7G18     30.10R
INDIANA*       CLOUDY    57  55  94 E12G22    30.18R FOG
LATROBE        LGT RAIN  57  57 100 NE12      30.12R
WASHINGTON CO* CLOUDY    61  55  82 NE8       30.10R
$$

PAZ004>006-010>012-017>019-024>028-033>037-041-042-045-046-049>053-291500-
CENTRAL PENNSYLVANIA

CITY           SKY/WX    TMP DP  RH WIND       PRES   REMARKS
BRADFORD       LGT RAIN  54  54 100 E10G18    30.23R
DUBOIS         RAIN      55  52  89 E13G20    30.19R VSB 1
CLEARFIELD     LGT RAIN  55  55 100 E12       30.21R FOG
JOHNSTOWN      LGT RAIN  54  54 100 E10G17    30.14S FOG
ALTOONA        LGT RAIN  56  56 100 E13G22    30.17F FOG
STATE COLLEGE  CLOUDY    55  55 100 E10G20    30.22R
WILLIAMSPORT   LGT RAIN  58  57  97 E6        30.26R
SELINSGROVE    RAIN      58  58 100 NE6       30.25R FOG
FT INDIANTOWN  RAIN      57  57 100 NE10      30.25S FOG
CAPITAL CITY   LGT RAIN  61  57  87 E16G25    30.22S
HARRISBURG     LGT RAIN  61  60  97 E12       30.21S
YORK           LGT RAIN  61  61 100 E9        30.19S
$$

PAZ038>040-043-044-047-048-054-055-060>062-067>071-291500-
EASTERN PENNSYLVANIA

CITY           SKY/WX    TMP DP  RH WIND       PRES   REMARKS
SCRANTON       LGT RAIN  56  52  86 E10G21    30.30R
MOUNT POCONO   CLOUDY    50  48  93 E14G25    30.33R
ALLENTOWN      CLOUDY    58  53  84 E16G22    30.31R
QUAKERTOWN*    CLOUDY    55  55 100 NE8       30.31R
READING        LGT RAIN  59  55  87 VRB6      30.26R
LANCASTER      RAIN      60  60 100 E17       30.24R FOG
COATESVILLE    LGT RAIN  61  59  94 E16G23    30.26S
POTTSTOWN      CLOUDY    58  57  97 E9G21     30.29R FOG
BLUE BELL      CLOUDY    59  59 100 NE12G21   30.27R
DOYLESTOWN     CLOUDY    59  57  93 NE6       30.28R
WILLOW GROVE   NOT AVBL
NORTH PHILA    CLOUDY    63  60  90 E17G23    30.29R FOG
PHILADELPHIA   CLOUDY    64  61  90 E21G30    30.26R
$$




USA.gov is the U.S. government's official web portal to all federal, state and local government web resources and services.